EHI
18 21 22 19 16 15 17 18 16 13 10 6 6 6 4 3 3 4 4 5 5 4 5 5 5 5 5 4 3 3 3 3 3 3 3 3 3 3 3 3 3 3 3
19 21 23 24 24 23 23 21 18 16 13 10 9 8 5 3 3 4 5 7 7 6 5 4 4 4 4 3 3 3 3 3 3 3 3 3 3 3 3 3 3 3 2
19 20 24 28 31 33 31 27 22 19 17 15 14 13 9 6 4 4 6 9 10 9 7 5 3 3 3 3 3 3 3 3 3 3 3 3 3 3 2 2 3 2 1
20 20 23 28 33 37 36 31 26 23 21 20 20 19 15 10 5 5 7 10 11 11 9 7 5 4 4 4 3 3 3 3 3 3 3 3 3 3 2 2 2 2 1
24 22 23 28 33 37 37 35 31 27 26 26 25 23 19 14 9 6 7 9 11 11 11 11 8 6 6 5 4 3 3 3 3 2 2 1 1 2 2 2 2 2 1
29 24 24 30 36 40 39 37 36 33 30 29 27 23 20 17 12 7 7 9 10 11 12 12 10 8 7 6 6 5 4 3 2 1 1 0 0 1 2 2 1 1 1
30 27 27 34 40 44 42 40 41 39 34 30 26 23 21 18 13 8 8 10 10 11 12 12 11 10 9 8 7 7 6 4 3 2 1 0 1 1 3 3 1 0 1
28 28 31 37 43 44 43 44 46 46 41 35 28 22 20 17 13 10 11 11 10 9 10 12 13 12 10 9 9 9 7 4 3 3 2 1 1 2 3 3 2 1 0
26 29 33 37 42 44 44 45 48 48 45 40 32 24 20 18 15 14 13 10 8 6 7 10 12 11 10 10 9 8 5 2 1 2 2 2 1 1 3 3 2 1 0
26 30 33 36 40 43 43 44 46 47 46 42 35 28 24 22 20 18 14 11 8 6 7 9 10 9 9 9 8 6 3 1 1 1 1 1 1 1 2 2 2 1 1
30 32 33 36 41 44 44 45 46 46 47 44 39 34 30 28 24 19 16 13 11 10 10 11 10 8 9 8 6 5 4 3 3 3 2 2 2 1 1 1 1 2 2
33 33 34 38 45 47 47 47 46 45 46 46 43 39 36 33 27 22 18 15 14 14 14 14 12 10 9 8 6 4 4 5 4 3 4 4 4 3 2 1 2 2 2
32 32 34 41 49 50 48 47 45 43 44 46 46 44 40 36 32 27 22 19 17 17 16 15 13 11 10 9 7 5 4 3 2 2 4 5 6 6 5 4 3 4 3
30 31 35 43 51 51 48 46 44 43 44 46 48 45 40 36 34 31 27 23 20 19 18 17 14 13 11 10 8 6 5 4 3 3 4 5 6 7 7 6 5 4 4
32 34 38 44 48 48 47 46 44 43 44 46 47 43 39 36 34 32 30 26 23 21 21 20 19 17 15 12 10 9 8 6 5 3 3 4 6 7 6 5 4 3 2
36 38 40 44 44 44 45 46 46 45 47 47 45 41 36 34 33 31 31 29 26 24 23 24 24 22 18 14 11 9 8 7 6 3 2 3 5 5 4 4 3 2 1
40 41 42 43 44 43 44 45 46 48 48 47 43 39 35 32 30 28 28 29 29 27 26 26 26 25 20 13 9 7 6 6 6 4 2 2 3 3 3 2 1 1 0
40 41 42 43 44 44 45 46 47 48 46 44 41 38 35 31 28 26 25 26 26 25 24 24 25 24 19 11 7 6 6 5 5 4 3 1 1 2 2 1 0 0 0
39 40 42 44 44 44 46 49 49 46 43 41 38 35 33 30 27 26 25 24 24 22 20 21 22 22 17 11 7 6 6 6 4 3 2 0 0 1 1 0 0 0 0
37 38 41 44 44 42 44 47 47 43 39 37 34 31 29 28 27 27 26 25 25 23 21 20 19 18 16 12 7 6 7 8 6 3 1 0 0 0 0 0 0 0 0
37 37 40 43 43 42 44 45 43 39 35 34 31 28 26 26 27 26 26 26 26 25 22 20 18 16 15 12 7 5 8 10 8 4 2 0 0 0 0 0 0 1 1
41 41 42 43 43 45 47 45 40 36 35 34 32 29 25 25 26 25 25 25 24 23 21 19 17 16 14 12 8 5 6 8 7 3 1 0 0 0 0 0 0 0 0
45 46 46 45 44 46 48 44 40 39 39 38 34 29 26 24 24 24 23 22 21 19 18 17 16 15 14 12 10 5 4 4 3 1 0 0 0 0 0 0 0 0 0
46 47 46 44 43 45 45 43 41 42 43 40 34 29 25 21 20 20 19 19 19 18 17 17 16 14 14 13 11 7 4 2 1 0 0 0 0 0 0 0 0 0 0
45 44 42 41 40 41 42 41 40 40 41 39 34 30 27 21 16 14 14 13 14 15 16 15 13 12 12 12 10 7 5 2 1 0 0 0 0 0 0 0 0 0 0
42 41 39 38 37 38 39 39 38 37 37 37 34 32 29 23 16 12 10 9 10 11 12 12 10 9 10 10 7 6 4 3 1 0 0 0 0 0 0 0 0 0 0
Wind_Speed
9 10 10 9 8 7 6 6 5 4 3 2 2 1 1 1 1 1 1 2 2 2 2 1 1 1 1 1 2 1 1 0 1 2 1 2 2 1 0 1 1 1 2
9 10 9 9 9 8 7 7 6 5 4 3 2 2 2 1 1 0 0 1 1 2 2 2 1 1 1 1 1 2 1 1 1 2 1 1 3 3 1 1 1 1 1
14 12 11 10 10 9 9 8 7 6 5 4 2 1 1 1 1 1 0 1 1 2 2 2 2 1 2 2 2 2 2 2 1 1 3 2 2 1 2 1 1 1 1
13 12 12 11 11 11 9 8 7 6 5 4 3 3 3 2 2 1 1 0 0 1 1 2 2 2 1 1 2 2 2 2 1 1 1 2 3 2 0 2 2 1 1
15 14 14 13 12 11 9 8 7 6 5 4 5 4 3 2 1 1 1 0 1 1 1 1 1 1 1 1 1 1 1 2 2 1 1 1 0 2 2 1 1 1 1
15 14 12 10 9 9 9 8 8 7 6 5 5 4 4 3 2 1 1 1 0 1 1 0 1 1 1 1 1 1 1 1 1 1 1 1 1 2 2 2 2 0 1
14 13 12 11 11 11 10 9 9 8 7 6 5 5 4 4 4 3 2 1 1 1 1 0 1 0 0 0 0 1 1 1 1 1 1 1 1 2 2 3 2 1 0
12 13 13 13 12 12 11 10 9 8 7 6 5 4 4 3 2 2 2 2 1 1 1 1 1 1 1 0 0 0 1 0 0 0 0 0 0 1 2 3 3 1 0
14 13 13 12 11 11 11 11 10 8 7 7 6 4 4 4 3 3 2 1 1 1 1 1 2 1 1 1 1 1 0 0 0 0 0 1 0 1 1 2 3 4 2
11 12 11 11 11 10 9 9 9 9 8 7 6 6 4 4 3 3 2 2 1 1 2 2 2 1 1 1 1 1 1 1 1 0 1 1 0 0 1 1 1 2 3
11 10 10 10 10 9 9 9 9 8 7 7 6 5 5 4 4 3 3 3 2 2 2 2 2 2 1 1 2 1 1 2 1 1 1 1 0 1 0 1 1 1 2
9 8 8 8 9 9 9 9 9 8 8 7 7 6 5 5 4 4 3 3 3 2 2 2 2 2 1 1 2 1 1 2 1 1 1 0 1 1 0 1 1 1 2
8 7 7 8 9 9 9 9 8 8 8 7 7 6 6 6 5 5 4 3 3 3 2 3 3 2 1 1 1 1 1 1 1 1 1 0 1 1 0 1 1 1 2
10 9 8 8 9 9 9 8 8 8 8 8 8 7 7 7 6 5 4 4 4 4 3 3 2 2 2 1 1 1 1 1 0 0 1 0 1 1 1 1 2 2 3
9 10 10 8 8 8 7 8 8 8 8 8 8 8 7 6 5 5 5 4 4 4 4 3 2 1 1 1 2 1 2 2 1 0 1 1 2 2 2 2 2 3 3
10 10 10 9 9 9 8 8 8 8 8 8 8 7 6 6 6 5 5 4 4 3 3 3 3 2 1 2 3 2 2 2 2 1 0 1 2 3 3 4 4 5 5
10 10 11 10 9 9 9 9 8 8 8 8 7 7 7 7 6 6 6 5 5 4 4 4 3 3 2 2 3 3 2 2 2 2 1 1 2 2 3 4 4 3 3
10 10 9 9 8 7 8 7 7 8 8 7 7 7 7 7 6 6 6 5 4 4 4 4 4 3 2 3 4 4 2 1 1 2 2 2 2 2 3 4 3 2 1
9 9 9 9 8 9 8 8 8 7 7 7 7 7 8 7 7 7 6 5 5 4 4 4 4 4 3 4 5 5 2 2 1 1 2 3 2 2 4 4 3 2 1
6 7 7 7 8 8 8 8 7 8 8 8 7 7 7 7 7 7 6 5 5 5 4 4 4 5 4 5 6 6 3 2 2 1 1 2 3 4 5 4 4 2 1
7 8 8 7 8 8 8 8 7 8 8 7 6 6 7 7 7 6 5 5 5 4 4 4 4 4 5 5 6 7 4 4 3 2 2 2 4 5 5 4 4 4 3
7 8 7 6 6 7 8 8 7 6 6 6 6 6 6 6 6 5 5 5 5 5 5 4 4 3 3 5 6 7 7 5 4 3 3 3 5 4 4 3 3 3 4
7 7 7 6 4 6 7 8 6 5 6 6 6 5 5 5 5 6 6 4 4 4 4 4 4 4 3 3 6 8 8 8 4 3 5 5 5 4 3 3 3 3 3
6 6 7 6 5 5 6 6 5 6 7 6 6 5 5 5 4 4 5 5 5 5 5 5 5 4 3 3 3 3 4 5 4 2 2 3 3 2 2 1 1 2 2
4 5 7 6 6 5 5 5 5 6 6 6 5 5 5 5 5 4 4 5 5 6 6 6 5 5 5 7 8 6 5 5 4 3 2 1 1 1 1 1 1 1 1
4 4 5 5 5 5 4 4 4 6 7 6 5 5 5 5 4 4 3 4 5 7 8 8 7 6 7 8 10 10 9 8 8 5 3 3 3 4 3 3 2 2 2
Wind_Direction
181 174 171 167 164 162 159 163 159 169 156 145 145 147 173 211 224 207 190 190 181 157 143 151 165 155 149 170 152 138 107 95 122 94 43 11 7 7 228 169 161 176 179
175 177 174 172 171 171 168 167 170 171 170 171 173 169 170 197 201 201 169 199 177 171 157 163 176 170 150 140 146 141 136 205 158 139 124 17 356 358 2 70 137 163 165
180 181 179 179 175 175 176 176 179 174 175 169 145 125 79 28 20 13 298 271 193 182 173 169 181 181 170 183 199 183 172 205 238 172 152 161 206 301 348 12 56 97 109
183 182 182 181 181 182 178 174 177 176 177 169 158 157 164 183 215 209 204 242 233 196 192 191 189 190 187 192 209 191 189 176 223 249 206 183 168 161 279 340 4 44 84
185 186 186 185 184 180 176 176 175 179 179 173 170 167 174 190 199 179 164 215 292 283 243 190 179 190 198 201 207 206 196 185 198 214 217 179 156 158 167 229 314 16 10
188 188 187 179 178 177 177 176 174 182 183 180 177 174 176 174 157 170 186 215 277 299 303 147 163 189 199 208 215 206 203 201 192 192 180 175 178 187 171 187 201 196 314
184 182 180 179 180 179 181 179 177 184 184 181 180 177 175 171 175 184 195 187 199 264 274 108 116 119 189 165 151 152 173 195 178 183 196 192 204 181 160 156 175 178 282
181 181 183 182 182 183 182 179 179 183 181 178 181 180 176 171 176 176 175 183 193 206 207 138 119 124 121 96 93 127 177 137 176 25 80 99 74 137 151 160 157 150 2
182 182 182 182 180 180 181 179 178 177 176 178 177 178 178 172 173 168 164 177 193 164 141 126 117 108 99 98 100 82 88 64 51 19 52 67 39 106 140 147 159 159 177
178 181 179 179 180 178 177 174 175 177 177 178 182 181 180 175 168 158 155 155 159 143 128 120 112 94 72 71 84 79 79 90 53 79 73 44 36 82 103 136 142 145 160
174 174 178 174 171 170 170 173 175 171 172 176 177 175 174 171 165 164 165 156 143 137 139 140 125 106 82 79 83 81 95 96 67 48 86 60 60 79 87 113 126 124 131
171 168 166 161 163 168 170 173 174 174 175 174 170 173 168 165 168 170 168 155 146 144 150 145 134 125 108 92 95 92 87 104 93 53 77 40 48 65 92 113 120 129 124
161 158 153 155 164 168 169 171 174 174 170 166 166 171 170 170 177 176 171 160 154 150 138 138 144 143 132 115 118 124 104 100 110 105 109 101 92 43 48 101 115 118 114
163 161 159 162 165 168 169 170 174 172 168 166 170 180 183 181 179 173 169 167 160 155 154 152 156 157 147 140 141 131 114 108 85 75 107 108 133 159 132 113 123 120 110
161 165 167 165 164 163 165 169 170 167 167 169 176 186 185 178 170 169 171 167 163 163 160 155 159 162 161 169 161 160 148 145 136 36 38 96 113 110 116 122 137 134 129
169 168 167 167 170 168 166 166 166 166 163 171 182 182 175 172 172 173 169 163 164 163 156 165 172 184 203 164 157 158 155 156 153 152 51 72 78 93 105 114 125 142 150
171 171 173 175 176 174 167 169 167 160 163 172 177 175 173 174 179 175 169 171 174 167 163 173 175 187 204 170 165 164 158 161 175 173 153 101 82 84 99 98 92 99 130
175 175 173 172 171 166 162 163 158 160 168 175 178 177 175 177 177 174 177 181 177 178 183 186 185 185 205 184 174 166 156 154 180 178 160 139 126 124 121 110 89 77 90
174 173 173 166 161 160 160 157 160 163 169 178 182 182 178 179 179 181 185 185 178 185 191 188 187 192 214 198 179 169 158 150 173 184 163 153 153 153 135 120 110 82 16
152 155 153 147 155 162 158 154 165 170 182 188 187 181 177 180 185 190 188 184 181 191 188 193 199 197 208 203 186 173 168 168 174 178 191 178 166 161 148 143 141 146 197
146 147 147 154 166 162 154 160 169 186 193 186 179 180 182 186 187 187 186 178 177 181 190 198 209 209 210 207 195 180 175 181 176 183 201 211 175 163 164 159 167 183 170
140 145 145 155 160 158 157 167 186 193 179 171 175 182 185 188 183 179 185 183 179 186 196 200 213 223 216 202 197 189 186 177 173 192 203 202 186 180 179 174 178 170 148
147 145 142 142 151 162 165 178 194 176 168 172 180 186 184 184 179 182 188 187 188 196 203 202 211 221 217 210 202 196 193 184 181 198 197 194 193 193 201 204 184 162 150
151 147 144 150 165 172 171 182 184 171 170 181 187 184 181 183 184 189 191 193 197 204 208 207 214 216 211 211 205 197 194 194 192 192 196 192 191 189 206 212 207 180 171
151 154 158 166 176 174 178 185 176 169 176 184 187 186 185 184 189 195 199 201 208 205 204 209 202 199 213 218 200 190 193 193 192 161 137 139 158 201 223 220 224 195 161
149 152 160 166 176 175 182 191 180 176 177 184 189 191 193 193 193 188 206 227 219 222 218 211 199 209 213 197 192 197 197 190 170 152 172 194 197 200 204 203 211 209 207